Location: ???????
(55.3754°N, 39.3545°E)
Time: 08:49:22
(UTC+00:00)

SL-8 Rocket - Pass Details

Date: 14 April 2026
Orbit: 957 x 988 km, 82.9° (Epoch: 10 May)

Event Time Altitude Azimuth Distance (km) Brightness Sun altitude
Rises 17:13:17 0° 169° (S) 3,661 6.6 -7.0°
Reaches altitude 10° 17:15:50 10° 164° (SSE) 2,722 5.9 -7.4°
Maximum altitude 17:21:49 50° 91° (E) 1,230 4.2 -8.1°
Drops below altitude 10° 17:27:53 10° 18° (NNE) 2,757 6.5 -8.8°
Sets 17:30:28 0° 14° (NNE) 3,712 7.3 -9.1°
